Home   Weather   Sidon   Past weeks

Flag for Lebanon Past Weather in Sidon, Lebanon — Yesterday and Last 2 Weeks

Now
68 °F

Sunny.


Feels Like: 68 °F
Forecast: 67 / 73 °F
Wind: 6 mph from Northwest

Location: Beirut Airport

Current Time: Dec 6, 2016 at 2:29:36 pm

Latest Report: Dec 6, 2016 at 2:00 pm


Visibility: N/A

Pressure: 30.24 "Hg

Humidity: 43%

Dew Point: 45 °F

Location of SidonLocation

Past Weather in Sidon — Graph

°F

Sidon Temperature Yesterday

Maximum temperature yesterday: 70 °F (at 12:00 pm)
Minimum temperature yesterday: 59 °F (at 7:00 am)
Average temperature yesterday: 64 °F

High & Low Weather Summary for the Past Weeks

 TemperatureHumidityPressure
High77 °F (Nov 23, 12:00 pm)88% (Nov 30, 1:00 pm)30.33 "Hg (Nov 30, 1:00 pm)
Low55 °F (Dec 1, 12:00 pm)5% (Nov 24, 5:00 am)29.68 "Hg (Dec 1, 10:00 pm)
Average65 °F44%30.09 "Hg
* Reported Nov 21 1:00 pm — Dec 6 1:00 pm, Sidon, Weather by CustomWeather, © 2016

Note: Actual official high and low records may vary slightly from our data, if they occured in-between our weather recording intervals... More about our weather records

Advertising

Sidon Weather History for the Previous 24 Hours

Scroll right to see more
 ConditionsComfort  
Time TempWeatherWind HumidityBarometerVisibility
1:00 pm
Tue, Dec 6
68 °FSunny.6 mph49%30.24 "HgN/A
12:00 pm68 °FSunny.2 mph46%30.27 "HgN/A
11:00 am68 °FSunny.5 mph46%30.27 "HgN/A
10:00 am68 °FSunny.No wind38%30.27 "HgN/A
8:00 am59 °FSunny.3 mph55%30.24 "Hg10 mi
6:00 am57 °FPassing clouds.6 mph59%30.21 "HgN/A
5:00 am57 °FPassing clouds.5 mph63%30.21 "HgN/A
4:00 am59 °FPassing clouds.5 mph59%30.21 "HgN/A
3:00 am59 °FPassing clouds.5 mph59%30.21 "HgN/A
2:00 am59 °FPassing clouds.6 mph59%30.21 "HgN/A
1:00 am59 °FPassing clouds.7 mph63%30.21 "HgN/A
12:00 am61 °FPassing clouds.5 mph63%30.21 "HgN/A
11:00 pm
Mon, Dec 5
61 °FPassing clouds.7 mph63%30.24 "HgN/A
10:00 pm61 °FPassing clouds.6 mph63%30.24 "Hg5 mi
9:00 pm61 °FPassing clouds.6 mph63%30.21 "Hg5 mi
8:00 pm63 °FPassing clouds.6 mph64%30.24 "Hg5 mi
7:00 pm63 °FPassing clouds.5 mph64%30.21 "HgN/A
6:00 pm64 °FPassing clouds.9 mph60%30.21 "HgN/A
5:00 pm66 °FPassing clouds.8 mph52%30.18 "Hg5 mi
4:00 pm66 °FScattered clouds.8 mph52%30.18 "HgN/A
3:00 pm68 °FScattered clouds.8 mph53%30.18 "HgN/A
2:00 pm68 °FScattered clouds.9 mph53%30.18 "HgN/A
Weather by CustomWeather, © 2016

See weather overviewHow to use our weather pages